This demonstration page uses our WeatherBlox Daily Observations layout. Learn more.

Left ArrowRight Arrow

Hourly Observations for February 6, 2016

Temp ( °F °C ) Dew Point ( °F °C ) Humidity (%) Winds ( mph kmh ) Pressure ( in mb ) Visibility ( mi km ) Precip ( " mm )
12:07 am 00:07 Cloudy 35 1.7 31 -0.6 85 85 NNW 7 11 30.33 1027 10 16 0.00 0.00
12:29 am 00:29 Cloudy 34 1.1 31 -0.6 89 89 NNW 5 7 30.33 1027 10 16 0.00 0.00
12:54 am 00:54 Cloudy 35 1.7 31 -0.6 85 85 NW 5 7 30.32 1027 10 16 0.00 0.00
1:54 am 01:54 Cloudy 34 1.1 29 -1.7 82 82 NW 7 11 30.31 1027 10 16 0.00 0.00
2:39 am 02:39 Partly Cloudy 33 0.6 28 -2.2 82 82 NW 3 6 30.33 1027 10 16 0.00 0.00
2:54 am 02:54 Clear 31 -0.6 28 -2.2 89 89 Calm 30.32 1027 10 16 0.00 0.00
3:54 am 03:54 Clear 24 -4.4 23 -5 96 96 W 5 7 30.32 1027 8 13 0.00 0.00
4:54 am 04:54 Clear with Mist and Fog 22 -5.6 19 -7.2 89 89 Calm 30.32 1027 3 5 0.00 0.00
5:04 am 05:04 Clear with Mist and Fog 21 -6 19 -7 93 93 WSW 3 6 30.39 1029 2 3 0.00 0.00
5:14 am 05:14 Clear with Mist and Fog 23 -5 21 -6 93 93 WSW 5 7 30.36 1028 3 5 0.00 0.00
5:33 am 05:33 Mostly Cloudy with Mist and Fog 22 -5.6 21 -6.1 96 96 SSE 3 6 30.39 1029 1 2 0.00 0.00
5:42 am 05:42 Mostly Cloudy with Mist and Fog 19 -7 19 -7 100 100 SSW 5 7 30.39 1029 1 1 0.00 0.00
5:54 am 05:54 Mostly Cloudy with Freezing Fog 21 -6.1 19 -7.2 92 92 SW 3 6 30.30 1026 0 0 0.00 0.00
6:33 am 06:33 Mostly Cloudy with Freezing Fog 19 -7.2 18 -7.8 96 96 Calm 30.39 1029 1 1 0.00 0.00
6:41 am 06:41 Mostly Cloudy with Freezing Fog 18 -7.8 17 -8.3 96 96 Calm 30.39 1029 1 1 0.00 0.00
6:50 am 06:50 Clear with Mist and Fog 21 -6 18 -8 86 86 Calm 30.39 1029 2 3 0.00 0.00
6:52 am 06:52 Clear with Mist and Fog 21 -6 18 -8 86 86 Calm 30.39 1029 3 5 0.00 0.00
6:54 am 06:54 Clear with Mist and Fog 21 -6.1 18 -7.8 88 88 Calm 30.31 1027 4 6 0.00 0.00
6:59 am 06:59 Clear with Mist and Fog 19 -7 18 -8 93 93 Calm 30.39 1029 2 3 0.00 0.00
7:04 am 07:04 Mostly Cloudy with Mist and Fog 19 -7 18 -8 93 93 SSW 3 6 30.39 1029 1 1 0.00 0.00
7:10 am 07:10 Clear with Mist and Fog 18 -8 16 -9 93 93 SW 3 6 30.39 1029 1 2 0.00 0.00
7:18 am 07:18 Mostly Cloudy with Mist and Fog 16 -9 16 -9 100 100 Calm 30.39 1029 1 2 0.00 0.00
7:26 am 07:26 Clear with Mist and Fog 18 -8 14 -10 86 86 Calm 30.39 1029 1 1 0.00 0.00
7:30 am 07:30 Clear with Mist and Fog 18 -7.8 15 -9.4 88 88 SSW 3 6 30.39 1029 2 3 0.00 0.00
7:37 am 07:37 Sunny with Mist and Fog 17 -8.3 15 -9.4 92 92 S 3 6 30.39 1029 4 6 0.00 0.00
7:54 am 07:54 Sunny with Mist and Fog 17 -8.3 15 -9.4 92 92 SSW 6 9 30.32 1027 5 8 0.00 0.00
8:54 am 08:54 Sunny with Mist and Fog 20 -6.7 18 -7.8 92 92 S 5 7 30.31 1027 6 10 0.00 0.00
9:54 am 09:54 Sunny 23 -5 21 -6.1 92 92 S 6 9 30.29 1026 9 14 0.00 0.00
10:54 am 10:54 Sunny 30 -1.1 24 -4.4 79 79 SW 10 17 30.29 1026 10 16 0.00 0.00
11:54 am 11:54 Sunny 33 0.6 25 -3.9 72 72 SSW 8 13 30.27 1025 10 16 0.00 0.00
12:54 pm 12:54 Sunny 36 2.2 27 -2.8 70 70 SSW 12 19 30.22 1023 10 16 0.00 0.00
1:54 pm 13:54 Sunny 37 2.8 26 -3.3 65 65 SSW 16 26 30.18 1022 10 16 0.00 0.00
2:54 pm 14:54 Sunny 38 3.3 26 -3.3 62 62 SSW 15 24 30.14 1021 10 16 0.00 0.00
3:54 pm 15:54 Sunny 38 3.3 25 -3.9 60 60 SSW 16 26 30.14 1021 10 16 0.00 0.00
4:54 pm 16:54 Sunny 37 2.8 24 -4.4 59 59 SSW 15 24 30.11 1020 10 16 0.00 0.00
5:54 pm 17:54 Clear 37 2.8 24 -4.4 59 59 SW 18 30 30.08 1019 10 16 0.00 0.00
6:54 pm 18:54 Clear 37 2.8 26 -3.3 65 65 SW 17 28 30.06 1018 10 16 0.00 0.00
7:54 pm 19:54 Clear 36 2.2 26 -3.3 67 67 SW 12 19 30.04 1017 10 16 0.00 0.00
8:54 pm 20:54 Clear 37 2.8 27 -2.8 67 67 SW 8 13 30.04 1017 10 16 0.00 0.00
9:54 pm 21:54 Clear 37 2.8 27 -2.8 67 67 SW 12 19 30.02 1017 10 16 0.00 0.00
10:54 pm 22:54 Clear 37 2.8 28 -2.2 70 70 SW 15 24 29.97 1015 10 16 0.00 0.00
11:54 pm 23:54 Clear 37 2.8 28 -2.2 70 70 WSW 14 22 29.99 1016 10 16 0.00 0.00

Powered by AerisWeather